Location: Unspecified
(43.4354°N, 0.0000°E)
Time: 04:13:55
(UTC+00:00)

Tiros 1 despin weight - Pass Details

Date: 03 July 2019
Orbit: 594 x 643 km, 48.2° (Epoch: 22 July)

Event Time Altitude Azimuth Distance (km) Brightness Sun altitude
Rises 20:15:58 0° 262° (W) 2,890 ? -5.5°
Reaches altitude 10° 20:18:20 10° 267° (W) 1,977 ? -5.8°
Maximum altitude 20:22:48 56° 346° (NNW) 730 ? -6.4°
Drops below altitude 10° 20:27:12 10° 65° (ENE) 1,951 ? -7.0°
Sets 20:29:32 0° 70° (ENE) 2,848 ? -7.4°
